Location: Pella
(41.4080°N, 92.9160°W)
Time: 19:05:05
(UTC-05:00)

Iridium 91 - Visible Passes

Search period start: 30 May 2016 00:00
Search period end: 09 June 2016 00:00
Orbit: 776 x 779 km, 86.4° (Epoch: 30 May)

Date Brightness Start Highest point End Pass type
(mag) Time Alt. Az. Time Alt. Az. Time Alt. Az.
30 May 5.6 01:58:36 10° N 02:03:49 67° E 02:04:27 61° SE visible
30 May 7.4 03:41:17 10° NW 03:43:52 14° WNW 03:44:54 13° W visible
31 May 6.5 01:25:21 10° NNE 01:30:10 36° E 01:30:55 35° E visible
31 May 6.8 03:06:28 10° NNW 03:10:41 25° W 03:11:23 25° W visible
01 Jun 7.3 00:52:32 10° NNE 00:56:24 21° ENE 00:57:23 19° E visible
01 Jun 5.9 02:32:23 10° NNW 02:37:21 46° W 02:37:51 44° WSW visible
02 Jun 7.9 00:20:59 10° NE 00:22:28 11° ENE 00:23:52 10° E visible
02 Jun 5.3 01:58:40 10° N 02:03:54 85° W 02:04:20 75° SSW visible
03 Jun 5.9 01:25:13 10° N 01:30:20 53° E 01:30:50 51° ESE visible
03 Jun 7.2 03:07:10 10° NW 03:10:34 18° W 03:11:17 17° W visible
04 Jun 6.8 00:52:07 10° NNE 00:56:38 29° E 00:57:19 28° E visible
04 Jun 6.5 02:32:44 10° NNW 02:37:19 32° W 02:37:47 31° W visible
05 Jun 7.5 00:19:34 10° NE 00:22:48 16° ENE 00:23:50 16° E visible
05 Jun 5.6 01:58:49 10° N 02:03:57 59° W 02:04:17 57° WSW visible
06 Jun 5.4 01:25:12 10° N 01:30:27 77° E 01:30:48 73° SE visible
06 Jun 7.6 03:08:24 10° NW 03:10:25 12° WNW 03:11:16 12° W visible
07 Jun 6.2 00:51:53 10° NNE 00:56:50 41° E 00:57:19 40° E visible
07 Jun 7.0 02:33:15 10° NNW 02:37:14 22° W 02:37:47 22° W visible
08 Jun 7.1 00:18:57 10° NNE 00:23:05 23° ENE 00:23:50 22° E visible
08 Jun 6.2 01:59:05 10° NNW 02:03:56 40° W 02:04:18 40° W visible
08 Jun 7.7 23:46:54 10° NE 23:49:11 13° ENE 23:50:22 12° E visible
